Location: Unspecified
(52.1971°N, 0.0000°E)
Time: 19:31:54
(UTC+00:00)

ISS - Visible Passes

Search period start: 19 May 2019 00:00
Search period end: 29 May 2019 00:00
Orbit: 407 x 410 km, 51.6° (Epoch: 20 May)

Date Brightness Start Highest point End Pass type
(mag) Time Alt. Az. Time Alt. Az. Time Alt. Az.
19 May -4.0 00:04:39 10° W 00:07:59 83° S 00:11:18 10° E visible
19 May -3.6 01:41:15 10° W 01:44:26 45° SSW 01:47:37 10° SE visible
19 May -3.4 21:37:32 10° SW 21:40:41 40° SSE 21:43:49 10° E visible
19 May -4.0 23:13:47 10° W 23:17:06 82° S 23:20:25 10° E visible
20 May -3.9 00:50:20 10° W 00:53:37 60° SSW 00:56:53 10° ESE visible
20 May -2.4 02:27:18 10° W 02:29:46 19° SW 02:32:13 10° SSE visible
20 May -2.9 20:46:59 10° SSW 20:49:53 29° SSE 20:52:50 10° E visible
20 May -4.0 22:22:55 10° WSW 22:26:12 74° S 22:29:31 10° E visible
20 May -4.0 23:59:26 10° W 00:02:45 73° SSW 00:04:30 25° ESE visible
21 May -1.8 01:36:09 10° W 01:37:06 16° W 01:37:06 16° W visible
21 May -3.8 21:32:03 10° WSW 21:35:20 62° SSE 21:38:36 10° E visible
21 May -4.0 23:08:32 10° W 23:11:51 81° S 23:14:14 18° E visible
22 May -2.5 00:45:08 10° W 00:46:55 26° WSW 00:46:55 26° WSW visible
22 May -3.5 20:41:17 10° SW 20:44:28 47° SSE 20:47:40 10° E visible
22 May -3.9 22:17:37 10° W 22:20:56 83° S 22:24:15 10° E visible
22 May -3.7 23:54:11 10° W 23:57:15 51° SSW 23:57:15 51° SSW visible
23 May -3.9 21:26:42 10° W 21:30:00 79° S 21:33:19 10° E visible
23 May -3.9 23:03:14 10° W 23:06:32 66° SSW 23:07:45 35° ESE visible
24 May -1.4 00:40:03 10° W 00:40:27 12° W 00:40:27 12° W visible
24 May -3.9 22:12:18 10° W 22:15:36 77° S 22:18:18 15° ESE visible
24 May -2.5 23:48:56 10° W 23:51:00 27° WSW 23:51:00 27° WSW visible
25 May -3.9 21:21:20 10° W 21:24:40 83° S 21:27:58 10° E visible
25 May -3.5 22:57:55 10° W 23:01:06 45° SSW 23:01:37 41° S visible
26 May -3.8 22:06:55 10° W 22:10:12 59° SSW 22:12:14 21° ESE visible
26 May -1.7 23:43:53 10° W 23:44:57 15° WSW 23:44:57 15° WSW visible
27 May -3.8 21:15:57 10° W 21:19:15 72° SSW 21:22:33 10° ESE visible
27 May -2.7 22:52:39 10° W 22:55:32 27° SSW 22:55:35 27° SSW visible
28 May -3.2 22:01:34 10° W 22:04:40 38° SSW 22:06:15 23° SSE visible
